Regional Weather Roundup
Issued by NWS Portland, ME

Home | Current Version | Previous Version | Text Only | Print | Product List | Glossary On
Versions: 1 2 3 4 5 6 7 8 9 10 11 12 13 14 15 16 17 18 19 20 21 22 23 24 25 26 27 28 29 30 31 32 33 34 35 36 37 38 39 40 41 42 43 44 45 46 47 48 49 50
000
ASUS41 KGYX 291110
RWRGYX
WEATHER ROUNDUP FOR MAINE AND NEW HAMPSHIRE
NATIONAL WEATHER SERVICE GRAY ME
600 AM EST THU JAN 29 2015

MEZ002-005-006-010-012-015-018-020-021-024-026-027-029-291200-
MAINE

CITY           SKY/WX    TMP DP  RH WIND       PRES   REMARKS
PORTLAND       PTCLDY     1  -2  87 W3        30.29R
SANFORD        PTCLDY   -17 -27  58 CALM      30.26S
BAR HARBOR     PTCLDY    -4  -6  92 CALM      30.26R
WISCASSET      PTCLDY    -8 -12  83 CALM      30.29S
ROCKLAND       PTCLDY     3  -6  66 CALM      30.25R
FRYEBURG       PTCLDY   -15 -20  78 CALM      30.26S
LEWISTONAUBURN PTCLDY    -6 -17  59 CALM      30.24R
AUGUSTA        PTCLDY     3  -3  76 NW5       30.25S
WATERVILLE     PTCLDY     0  -8  71 CALM      30.22S
BANGOR         PTCLDY    -8 -13  78 CALM      30.27R
GREENVILLE       N/A      8  -5  55 N9        30.14S
MILLINOCKET    PTCLDY     4  -2  76 CALM      30.25R
HOULTON        PTCLDY   -12 -18  74 CALM      30.21R
PRESQUE ISLE   PTCLDY   -17 -29  52 CALM      30.21R
FRENCHVILLE    PTCLDY     2  -2  83 W6        30.17R
CARIBOU        PTCLDY    -2  -6  83 NE3       30.21R
$$

NHZ002-005-008-009-011-012-014-291200-
NEW HAMPSHIRE

CITY           SKY/WX    TMP DP  RH WIND       PRES   REMARKS
PORTSMOUTH     CLEAR      1  -4  80 W3        30.27S
ROCHESTER      PTCLDY     5  -5  63 NW5       30.25F
NASHUA           N/A     -7 -11  83 NW5       30.30S
MANCHESTER     PTCLDY    -1  -7  75 CALM      30.27S
CONCORD        PTCLDY    -6 -12  75 CALM      30.28S
LACONIA        PTCLDY     0  -6  78 SW3       30.23S
PLYMOUTH       FAIR       6  -2  71 CALM      30.27S
BERLIN         PTCLDY   -22 -31  63 CALM      30.26S
WHITEFIELD     PTCLDY   -22 -30  66 CALM      30.27F
JAFFREY        PTCLDY   -10 -16  74 CALM      30.22S
KEENE          PTCLDY    -8 -11  84 CALM      30.29R
LEBANON        PTCLDY    -6 -11  79 CALM      30.31F
MT WASHINGTON  PTCLDY    12   5  73 N10         N/A  WCI  -1
$$

VTZ005-007-008-291200-
VERMONT

CITY           SKY/WX    TMP DP  RH WIND       PRES   REMARKS
ST JOHNSBURY     N/A    -13 -18  78 MISG      30.32S
MONTPELIER     PTCLDY   -10 -15  78 CALM      30.30S
BURLINGTON     MOCLDY    -2  -9  72 NE3       30.31F
$$

MAZ007-012-024-CTZ003-RIZ002-NYZ038-NYZ072-291200-
SOUTHERN NEW ENGLAND AND NY

CITY           SKY/WX    TMP DP  RH WIND       PRES   REMARKS
BOSTON         PTCLDY    14  -1  51 NW5       30.29F
WORCESTER      PTCLDY    18  -8  31 N3        30.21R
NANTUCKET      CLEAR     27  21  78 N8        30.24R
PROVIDENCE     PTCLDY     6  -1  73 W3        30.29F
HARTFORD       PTCLDY     4  -5  66 NW3       30.30S
ALBANY         PTCLDY    -2  -8  76 CALM      30.33F
NEW YORK CITY  PTCLDY    21   5  50 N6        30.32R
$$

ANZ081-ANZ082-ANZ150-NHZ014-MEZ023>029-291200-
COASTAL MARINE OBSERVATIONS

STATION/POSITION TIME  TEMP    WIND        PRES    WAVE
                       AIR SEA DIR/SP/G            HT/PER
                 (UTC) (F)     (DEG/KT/KT) (MB)    (FT/S)
MOUNT DESERT ROC 1100   23                 1023.1R
MATINICUS ROCK   1100          360/ 14/ 17 1024.6R
PORTLAND WX BUOY 1050   20 40  320/  6/  8 1025.1R   2/10
WELLS            1000    8 34  340/  2/  3 1024.9R
ISLE OF SHOALS   1100   20     330/ 12/ 13 1024.7F
JEFFREYS LEDGE   1021      44                N/A     4/11
CASHES LEDGE BUO 1050   27 44  360/ 12/ 14 1023.9R   4/ 5
$$

.............KEY..............
   WCI - WIND CHILL
   TC  - TEMPERATURE IN CELSIUS
   VSB - VISIBILITY IN MILES
   HX  - HEAT INDEX
   FAIR- INDICATES FEW OR NO CLOUDS BELOW 12,000 FT, WITH NO
         SIGNIFICANT WEATHER AND/OR OBSTRUCTIONS TO VISIBILITY.





USA.gov is the U.S. government's official web portal to all federal, state and local government web resources and services.